星链-2135 (STARLINK-2135 )

导读 | 豆包AI

STARLINK-2135是美国太空探索技术公司(SpaceX)星链星座的成员,于2021年1月20日发射升空。它属于星链互联网卫星项目,主要为全球提供低延迟、高速宽带互联网服务,尤其覆盖偏远及网络基础设施匮乏区域,是SpaceX构建大规模近地轨道卫星星座的重要组成部分。

基本信息
目录编号:
47408
目录名称:
STARLINK-2135
国际标识:
2021-005BM
轨道中心:
EARTH
卫星名称:
星链-2135
卫星全名:
星链-2135 (STARLINK-2135 )
卫星状态:
在轨 (已飞行1926 天)
发射日期:
2021-01-20 UTC
国别 :
美国 (US)
星等 :
--
轨道信息
数据来源 国际轨道数据 AOE轨道数据
星历时间 2026-04-30T12:00:01+0800
8小时前
查看轨道信息
2026-04-30T06:00:00+0800
14小时前
查看轨道信息
半长轴 6853.356km 6853.342km
偏心率 0.0001178 0.0001131
轨道倾角 53.159° 53.157°
近地点辐角 108.074° 139.754°
升交点赤经 157.645° 158.809°
平近点角 67.173° 97.429°
近地点 474.411km 474.429km
远地点 476.027km 475.981km
周期 94.105分钟 94.105分钟
每日圈数 15.30199 15.302035
详细信息
固有亮度:
5
最大亮度:
2.5
卫星平台:
Starlink V1.0
覆盖范围:
全球
运营商:
太空探索技术公司
运营商所在国:
美国
制造商(研发单位):
太空探索技术公司
制造商所在国:
美国
使用方式:
暂无
卫星简介
星链(Starlink)计划是由太空探索技术公司(SpaceX)提出的一个巨型低轨卫星互联网星座项目,计划在2019年至2024年间在太空搭建由约1.2万颗卫星组成的“星链”网络,其中1584颗将部署在地球上空550千米处的近地轨道,并从2020年开始工作。该卫星仍在工作。
2D轨道图
3D轨道图
轨道高度分析图
轨道倾角分析图
轨道综合分析图
查看轨道综合分析图